Location: Rumah Sambob
(2.9167°N, 113.9167°E)
Time: 19:16:10
(UTC+00:00)

Cosmos 1238 Rocket - Pass Details

Date: 06 June 2020
Orbit: 374 x 1030 km, 82.9° (Epoch: 11 July)

Event Time Altitude Azimuth Distance (km) Brightness Sun altitude
Exits shadow 20:54:54 - 173° (S) 2,594 6.1 -19.1°
Reaches altitude 10° 20:56:21 10° 169° (S) 2,034 5.6 -18.7°
Maximum altitude 21:00:48 54° 91° (E) 885 4.1 -17.7°
Drops below altitude 10° 21:06:11 10° 15° (NNE) 2,449 6.7 -16.5°
Sets 21:08:51 0° 11° (N) 3,481 7.4 -15.9°
